TimeEST,TemperatureF,Dew PointF,Humidity,Sea Level PressureIn,VisibilityMPH,Wind Direction,Wind SpeedMPH,Gust SpeedMPH,PrecipitationIn,Events,Conditions,WindDirDegrees,DateUTC
12:53 AM,28.0,25.0,88,29.92,7.0,Calm,Calm,-,N/A,,Partly Cloudy,0,2014-01-17 05:53:00
1:53 AM,26.1,23.0,88,29.92,5.0,Calm,Calm,-,N/A,,Clear,0,2014-01-17 06:53:00
2:53 AM,24.1,21.9,91,29.93,6.0,SE,3.5,-,N/A,,Clear,140,2014-01-17 07:53:00
3:53 AM,24.1,19.9,84,29.93,5.0,Calm,Calm,-,N/A,,Clear,0,2014-01-17 08:53:00
4:53 AM,21.9,19.9,92,29.93,6.0,Calm,Calm,-,N/A,,Clear,0,2014-01-17 09:53:00
5:53 AM,23.0,19.9,88,29.93,6.0,Calm,Calm,-,N/A,,Clear,0,2014-01-17 10:53:00
6:53 AM,23.0,18.0,81,29.95,6.0,Calm,Calm,-,N/A,,Haze,0,2014-01-17 11:53:00
8:53 AM,27.0,24.1,89,29.96,6.0,Calm,Calm,-,N/A,,Overcast,0,2014-01-17 13:53:00
9:53 AM,30.0,27.0,88,29.97,6.0,Calm,Calm,-,N/A,,Overcast,0,2014-01-17 14:53:00
10:53 AM,33.1,28.0,82,29.95,7.0,West,3.5,-,N/A,,Scattered Clouds,270,2014-01-17 15:53:00
11:53 AM,39.0,25.0,57,29.93,10.0,Variable,4.6,-,N/A,,Clear,0,2014-01-17 16:53:00
12:53 PM,41.0,25.0,53,29.90,10.0,WSW,6.9,-,N/A,,Clear,250,2014-01-17 17:53:00
1:53 PM,42.1,23.0,47,29.90,10.0,SSW,6.9,-,N/A,,Scattered Clouds,210,2014-01-17 18:53:00
2:53 PM,43.0,24.1,47,29.90,10.0,SSW,4.6,-,N/A,,Mostly Cloudy,200,2014-01-17 19:53:00
3:53 PM,42.1,24.1,49,29.91,10.0,Calm,Calm,-,N/A,,Mostly Cloudy,0,2014-01-17 20:53:00
4:53 PM,39.9,24.1,53,29.91,10.0,Calm,Calm,-,N/A,,Clear,0,2014-01-17 21:53:00
5:53 PM,33.1,25.0,72,29.91,10.0,Calm,Calm,-,N/A,,Clear,0,2014-01-17 22:53:00
6:53 PM,30.9,25.0,79,29.92,10.0,Calm,Calm,-,N/A,,Clear,0,2014-01-17 23:53:00
7:53 PM,30.0,25.0,82,29.92,9.0,Calm,Calm,-,N/A,,Clear,0,2014-01-18 00:53:00
8:53 PM,30.0,25.0,82,29.93,8.0,Calm,Calm,-,N/A,,Clear,0,2014-01-18 01:53:00
9:53 PM,30.0,25.0,82,29.93,8.0,Calm,Calm,-,N/A,,Clear,0,2014-01-18 02:53:00
10:53 PM,28.9,25.0,85,29.91,8.0,Calm,Calm,-,N/A,,Clear,0,2014-01-18 03:53:00
11:53 PM,28.0,25.0,88,29.89,7.0,Calm,Calm,-,N/A,,Clear,0,2014-01-18 04:53:00